Change the Weather History Date:

Wednesday, July 4, 2012

  Actual Average Record
Temperature  
Mean Temperature 84 °F 79 °F  
Max Temperature 87 °F 84 °F 90 °F (1902)
Min Temperature 81 °F 73 °F 58 °F (2010)
Degree Days  
Heating Degree Days 0 0  
Month to date heating degree days 0 0  
Since 1 June heating degree days 0 3  
Since 1 July heating degree days 0 0  
Cooling Degree Days 19 14  
Month to date cooling degree days 66 53  
Year to date cooling degree days 713 504  
Since 1 June cooling degree days 388 361  
Growing Degree Days 34 (Base 50)    
Moisture  
Dew Point 76 °F    
Average Humidity 83    
Maximum Humidity 91    
Minimum Humidity 74    
Precipitation  
Precipitation 0.00 in 0.14 in 2.03 in (1971)
Month to date precipitation 0.51 0.58  
Year to date precipitation 26.04 25.85  
Snow  
Snow 0.00 in - - ()
Month to date snowfall 0.0  
Since 1 July snowfall 0.0  
Snow Depth 0.00 in    
Sea Level Pressure  
Sea Level Pressure 29.95 in    
Wind  
Wind Speed 13 mph (WSW)    
Max Wind Speed 14 mph    
Max Gust Speed 22 mph    
Visibility 8 miles    
Events      
T = Trace of Precipitation, MM = Missing Value Source: NWS Daily Summary

Daily Weather History Graph

Daily Weather History Graph

Search for Another Location

Airport or City:

Trip Planner

Search our weather history database for the weather conditions in past years. The results will help you decide how hot, cold, wet, or windy it might be!

Date:

Astronomy

Jul. 04, 2012 Rise Set
Actual Time 5:53 AM EDT 8:20 PM EDT
Civil Twilight 5:23 AM EDT 8:50 PM EDT
Nautical Twilight 4:47 AM EDT 9:26 PM EDT
Astronomical Twilight 4:06 AM EDT 10:06 PM EDT
Moon 9:02 PM EDT (7/4) 6:49 AM EDT (7/4)
Length of Visible Light 15h 26m
Length of Day
14h 27m
Full, 99% of the Moon is Illuminated
Jul 4
Full
Jul 10
Last Quarter
Jul 19
New
Jul 26
First Quarter
Aug 1
Full

Hourly Weather History & Observations

Time (EDT) Temp. Heat Index Dew Point Humidity Pressure Visibility Wind Dir Wind Speed Gust Speed Precip Events Conditions
12:51 AM 81.0 °F 86.7 °F 75.0 °F 82% 29.97 in 10.0 mi WSW 11.5 mph - N/A   Clear
1:51 AM 81.0 °F 86.7 °F 75.0 °F 82% 29.96 in 10.0 mi WSW 12.7 mph - N/A   Clear
2:51 AM 81.0 °F 87.3 °F 75.9 °F 85% 29.96 in 9.0 mi WSW 11.5 mph - N/A   Clear
3:51 AM 81.0 °F 87.3 °F 75.9 °F 85% 29.96 in 9.0 mi WSW 10.4 mph 18.4 mph N/A   Clear
4:51 AM 81.0 °F 87.3 °F 75.9 °F 85% 29.95 in 10.0 mi WSW 12.7 mph - N/A   Clear
5:51 AM 81.0 °F 86.7 °F 75.0 °F 82% 29.95 in 10.0 mi SW 11.5 mph - N/A   Clear
6:51 AM 81.0 °F 86.7 °F 75.0 °F 82% 29.96 in 9.0 mi SW 13.8 mph 19.6 mph N/A   Clear
7:51 AM 82.0 °F 88.6 °F 75.0 °F 79% 29.96 in 9.0 mi WSW 13.8 mph 20.7 mph N/A   Clear
8:51 AM 82.9 °F 90.8 °F 75.9 °F 79% 29.97 in 9.0 mi WSW 13.8 mph 20.7 mph N/A   Clear
9:51 AM 84.0 °F 92.6 °F 75.9 °F 76% 29.97 in 8.0 mi WSW 11.5 mph 20.7 mph N/A   Clear
10:51 AM 82.9 °F 91.8 °F 77.0 °F 82% 29.98 in 8.0 mi WSW 11.5 mph 18.4 mph N/A   Clear
11:51 AM 84.9 °F 95.3 °F 77.0 °F 77% 29.97 in 8.0 mi WSW 11.5 mph - N/A   Clear
12:51 PM 86.0 °F 98.3 °F 78.1 °F 77% 29.96 in 7.0 mi WSW 13.8 mph 19.6 mph N/A   Clear
1:51 PM 86.0 °F 96.9 °F 77.0 °F 74% 29.96 in 7.0 mi WSW 13.8 mph - N/A   Clear
2:51 PM 86.0 °F 98.3 °F 78.1 °F 77% 29.97 in 7.0 mi WSW 12.7 mph - N/A   Clear
3:51 PM 86.0 °F 98.3 °F 78.1 °F 77% 29.95 in 7.0 mi SW 11.5 mph - N/A   Clear
4:51 PM 84.9 °F 95.3 °F 77.0 °F 77% 29.92 in 7.0 mi SW 13.8 mph 19.6 mph N/A   Clear
5:51 PM 84.0 °F 93.7 °F 77.0 °F 79% 29.90 in 7.0 mi SW 13.8 mph 19.6 mph N/A   Clear
6:51 PM 82.9 °F 90.8 °F 75.9 °F 79% 29.91 in 8.0 mi WSW 12.7 mph - N/A   Clear
7:51 PM 82.0 °F 88.6 °F 75.0 °F 79% 29.91 in 8.0 mi WSW 13.8 mph 20.7 mph N/A   Clear
8:51 PM 82.0 °F 89.4 °F 75.9 °F 82% 29.91 in 8.0 mi WSW 13.8 mph 21.9 mph N/A   Clear
9:51 PM 82.0 °F 89.4 °F 75.9 °F 82% 29.92 in 7.0 mi WSW 13.8 mph 21.9 mph N/A   Clear
10:51 PM 81.0 °F 87.9 °F 77.0 °F 88% 29.93 in 7.0 mi WSW 13.8 mph 18.4 mph N/A   Clear
11:51 PM 81.0 °F 87.9 °F 77.0 °F 88% 29.94 in 7.0 mi WSW 10.4 mph - N/A   Clear